• Join FlightAware (Why Join?)
  • Login
  • US Flag 
12:13AM EST


 

Airport Tracker/Info


-or-


 

Live Flight TrackerFlight Track Log ✈ USC105 ✈ 11-Apr-2013 ✈ KLCK - KBKL

Flight Track Log - Related Links

Times and Time Zones

All times are in EDT time to prevent confusion due to time zone crossing. See the USC105 flight status page for this flight to view local times or setup timezone preferences in your user account.

Time Position Orientation Groundspeed Altitude Reporting Facility
EDT Latitude Longitude Course Direction KTS MPH feet Rate Location/Type
10:00PM 39.8036 -82.9419 163° South 104 120 1,000  Level Indianapolis Center
10:01PM 39.7853 -82.9344 163° South 130 150 2,300 1,152 Climbing Indianapolis Center
10:02PM 39.7883 -82.9019 83° East 139 160 2,900 1,059 Climbing Indianapolis Center
10:03PM 39.7939 -82.8703 77° East 127 146 3,800 1,009 Climbing Indianapolis Center
10:04PM 39.8206 -82.8461 35° Northeast 143 165 4,700 880 Climbing Indianapolis Center
10:04PM 39.8289 -82.8464 359° North 138 159 4,900 873 Climbing Indianapolis Center
10:04PM 39.8558 -82.8500 354° North 151 174 5,500 774 Climbing Indianapolis Center
10:05PM 39.8706 -82.8503 359° North 146 168 5,700 537 Climbing Indianapolis Center
10:06PM 39.9050 -82.8367 17° North 174 200 6,100 393 Climbing Indianapolis Center
10:06PM 39.9167 -82.8311 20° North 172 198 6,100 400 Level Indianapolis Center
10:07PM 39.9508 -82.8092 26° Northeast 182 209 6,500 590 Climbing Indianapolis Center
10:07PM 39.9617 -82.8022 26° Northeast 179 206 6,700 393 Climbing Indianapolis Center
10:08PM 39.9944 -82.7786 29° Northeast 181 208 6,900 295 Climbing Indianapolis Center
10:08PM 40.0056 -82.7678 37° Northeast 181 208 7,000  Climbing Indianapolis Center
10:09PM 40.0453 -82.7408 27° Northeast 209 241 6,900 -98 Descending Indianapolis Center
10:09PM 40.0564 -82.7339 26° Northeast 200 230 6,900  Level Indianapolis Center
10:09PM 40.0950 -82.7136 22° Northeast 212 244 6,900  Level Indianapolis Center
10:10PM 40.1119 -82.7033 25° Northeast 209 241 6,900 98 Level Indianapolis Center
10:11PM 40.1458 -82.6756 32° Northeast 213 245 7,000  Climbing Indianapolis Center
10:11PM 40.1625 -82.6642 28° Northeast 210 242 6,900 -125 Descending Indianapolis Center
10:11PM 40.1872 -82.6503 23° Northeast 216 249 6,900 98 Level Indianapolis Center
10:12PM 40.2181 -82.6308 26° Northeast 216 249 7,000  Climbing Indianapolis Center
10:12PM 40.2439 -82.6156 24° Northeast 220 253 6,900  Descending Indianapolis Center
10:13PM 40.2725 -82.5917 32° Northeast 219 252 7,000  Climbing Indianapolis Center
10:13PM 40.2986 -82.5753 26° Northeast 216 249 6,900  Descending Indianapolis Center
10:14PM 40.3261 -82.5542 30° Northeast 218 251 7,000  Climbing Indianapolis Center
10:14PM 40.3578 -82.5350 25° Northeast 217 250 6,900  Descending Indianapolis Center
10:15PM 40.3817 -82.5186 28° Northeast 219 252 7,000 98 Climbing Indianapolis Center
10:15PM 40.4122 -82.5000 25° Northeast 219 252 7,000  Level Indianapolis Center
10:16PM 40.4356 -82.4814 31° Northeast 217 250 7,000 -98 Level Indianapolis Center
10:16PM 40.4669 -82.4622 25° Northeast 222 255 6,900  Descending Indianapolis Center
10:17PM 40.4911 -82.4419 33° Northeast 223 257 7,000  Climbing Indianapolis Center
10:18PM 40.5472 -82.4042 27° Northeast 225 259 6,900 -49 Descending Indianapolis Center
10:19PM 40.6053 -82.3658 27° Northeast 229 264 6,900 49 Level Indianapolis Center
10:20PM 40.6664 -82.3172 31° Northeast 222 255 7,000 49 Climbing Indianapolis Center
10:21PM 40.7206 -82.2747 31° Northeast 223 257 7,000 73 Level Indianapolis Center
10:21PM 40.7383 -82.2656 21° North 222 255 7,100 87 Climbing Cleveland Center
10:22PM 40.7806 -82.2367 27° Northeast 224 258 7,100  Level Cleveland Center
10:23PM 40.8292 -82.1994 30° Northeast 221 254 7,100 -52 Level Cleveland Center
10:24PM 40.8839 -82.1539 32° Northeast 232 267 7,000 -94 Descending Cleveland Center
10:25PM 40.9511 -82.1117 25° Northeast 232 267 6,900 -50 Descending Cleveland Center
10:26PM 41.0017 -82.0717 31° Northeast 229 264 6,900  Level Cleveland Center
10:27PM 41.0458 -82.0422 27° Northeast 217 250 6,900 -275 Level Cleveland Center
10:28PM 41.0964 -81.9994 33° Northeast 232 267 6,400 -492 Descending Cleveland Center
10:29PM 41.1575 -81.9536 29° Northeast 245 282 5,900 -645 Descending Cleveland Center
10:30PM 41.2103 -81.9081 33° Northeast 222 255 5,100 -756 Descending Cleveland Center
10:31PM 41.2547 -81.8508 44° Northeast 217 250 4,300 -703 Descending Cleveland Center
10:32PM 41.3031 -81.7992 39° Northeast 214 246 3,600 -545 Descending Cleveland Center
10:33PM 41.3392 -81.7475 47° Northeast 181 208 3,200 -331 Descending Cleveland Center
10:34PM 41.3628 -81.6842 64° Northeast 169 194 2,900 -134 Descending Cleveland Center
10:35PM 41.3881 -81.6375 54° Northeast 162 186 2,900  Level Cleveland Center
10:36PM 41.4339 -81.6522 346° North 176 203 2,900 -472 Level Cleveland Center
10:38PM 41.4922 -81.6586 355° North 193 222 1,900 -645 Descending Cleveland Center
10:38PM 41.5378 -81.6706 349° North 180 207 1,600 -365 Descending Cleveland Center
10:39PM 41.5186 -81.7175 241° Southwest 140 161 1,200 -393 Descending Cleveland Center
10:42PM 41.5175 -81.6833 217° Southwest  Level Estimated